When you browse on this site, cookies collect data to enhance your experience and personalize the content and advertising you see.
Visit our Privacy Policy to learn more. By continuing to use the site, you agree to this use of cookies and data.
  • en France
  • Liste des pays
  • À 7 jours
  • Température de l'eau
  • Carte satellitaire
  • Carte météo
  • Widgets météo
  • user-avatar
    Se connecter

    Météo par heure à Buon Ma Thuot

    Ce jour, 16 Juillet, Mardi

    Heure Température Précipitation Vent Pression Humidité
    00:00 +24°C° 0.1 mm 1 m/s 717 mmHg 95%
    01:00 +23°C° 0 mm 1 m/s 718 mmHg 95%
    02:00 +23°C° 0.1 mm 1 m/s 717 mmHg 95%
    03:00 +23°C° 0.1 mm 1 m/s 717 mmHg 96%
    04:00 +23°C° 0.1 mm 1 m/s 717 mmHg 96%
    05:00 +24°C° 0 mm 1 m/s 717 mmHg 94%
    06:00 +22°C° 0 mm 0 m/s 717 mmHg 92%
    07:00 +25°C° 0 mm 1 m/s 718 mmHg 90%
    08:00 +27°C° 0.4 mm 1 m/s 718 mmHg 84%
    09:00 +29°C° 0.4 mm 1 m/s 718 mmHg 77%
    10:00 +30°C° 0.4 mm 2 m/s 718 mmHg 70%
    11:00 +31°C° 0.4 mm 2 m/s 718 mmHg 69%
    12:00 +31°C° 0.4 mm 2 m/s 717 mmHg 68%
    13:00 +31°C° 0 mm 2 m/s 717 mmHg 68%
    14:00 +31°C° 0.9 mm 2 m/s 716 mmHg 73%
    15:00 +30°C° 0.9 mm 2 m/s 716 mmHg 78%
    16:00 +29°C° 0.9 mm 2 m/s 716 mmHg 83%
    17:00 +28°C° 1.3 mm 1 m/s 716 mmHg 86%
    18:00 +27°C° 1.3 mm 1 m/s 716 mmHg 90%
    19:00 +25°C° 1.3 mm 1 m/s 716 mmHg 94%
    20:00 +25°C° 0.6 mm 1 m/s 717 mmHg 95%
    21:00 +24°C° 0.6 mm 1 m/s 717 mmHg 96%
    22:00 +24°C° 0.6 mm 1 m/s 718 mmHg 96%
    23:00 +23°C° 0.9 mm 1 m/s 718 mmHg 97%

    Demain, 17 Juillet, Mercredi

    Heure Température Précipitation Vent Pression Humidité
    00:00 +23°C° 0.9 mm 1 m/s 717 mmHg 97%
    01:00 +23°C° 0.9 mm 1 m/s 717 mmHg 98%
    02:00 +23°C° 0.3 mm 1 m/s 717 mmHg 98%
    03:00 +23°C° 0.3 mm 1 m/s 717 mmHg 98%
    04:00 +23°C° 0.3 mm 1 m/s 717 mmHg 98%
    05:00 +24°C° 0 mm 1 m/s 717 mmHg 97%
    06:00 +24°C° 0 mm 1 m/s 717 mmHg 96%
    07:00 +25°C° 0 mm 1 m/s 717 mmHg 95%
    08:00 +27°C° 0 mm 1 m/s 717 mmHg 86%
    09:00 +28°C° 0 mm 1 m/s 717 mmHg 76%
    10:00 +30°C° 0 mm 1 m/s 717 mmHg 67%
    11:00 +31°C° 0.5 mm 2 m/s 717 mmHg 68%
    12:00 +31°C° 0.5 mm 2 m/s 716 mmHg 69%
    13:00 +31°C° 0.5 mm 2 m/s 716 mmHg 69%
    14:00 +31°C° 0.9 mm 2 m/s 715 mmHg 74%
    15:00 +30°C° 0.9 mm 1 m/s 715 mmHg 78%
    16:00 +29°C° 0.9 mm 1 m/s 714 mmHg 82%
    17:00 +28°C° 0.3 mm 1 m/s 715 mmHg 86%
    18:00 +27°C° 0.3 mm 1 m/s 715 mmHg 90%
    19:00 +23°C° 0.3 mm 0 m/s 716 mmHg 94%
    20:00 +25°C° 0.1 mm 1 m/s 716 mmHg 95%
    21:00 +25°C° 0.1 mm 1 m/s 717 mmHg 95%
    22:00 +24°C° 0.1 mm 1 m/s 717 mmHg 95%
    23:00 +24°C° 0 mm 1 m/s 717 mmHg 95%

    Après-demain, 18 Juillet, Jeudi

    Heure Température Précipitation Vent Pression Humidité
    00:00 +24°C° 0 mm 1 m/s 717 mmHg 95%
    01:00 +24°C° 0 mm 1 m/s 717 mmHg 96%
    02:00 +24°C° 0 mm 1 m/s 716 mmHg 96%
    03:00 +23°C° 0 mm 1 m/s 716 mmHg 97%
    04:00 +23°C° 0 mm 1 m/s 716 mmHg 97%
    05:00 +24°C° 0 mm 1 m/s 716 mmHg 95%
    06:00 +24°C° 0 mm 1 m/s 716 mmHg 94%
    07:00 +25°C° 0 mm 1 m/s 717 mmHg 92%
    08:00 +27°C° 0 mm 1 m/s 717 mmHg 83%
    09:00 +28°C° 0 mm 1 m/s 717 mmHg 74%
    10:00 +30°C° 0 mm 2 m/s 717 mmHg 65%
    11:00 +31°C° 0.5 mm 2 m/s 717 mmHg 66%
    12:00 +31°C° 0.5 mm 2 m/s 716 mmHg 67%
    13:00 +31°C° 0.5 mm 2 m/s 716 mmHg 68%
    14:00 +31°C° 0.6 mm 2 m/s 715 mmHg 71%
    15:00 +30°C° 0.6 mm 2 m/s 715 mmHg 75%
    16:00 +30°C° 0.6 mm 2 m/s 715 mmHg 78%
    17:00 +28°C° 0.5 mm 1 m/s 715 mmHg 83%
    18:00 +27°C° 0.5 mm 1 m/s 716 mmHg 88%
    19:00 +25°C° 0.5 mm 1 m/s 716 mmHg 92%
    20:00 +25°C° 0.8 mm 1 m/s 717 mmHg 93%
    21:00 +25°C° 0.8 mm 1 m/s 717 mmHg 94%
    22:00 +24°C° 0.8 mm 1 m/s 717 mmHg 95%
    23:00 +24°C° 0 mm 1 m/s 717 mmHg 94%

    19 Juillet, Vendredi

    Heure Température Précipitation Vent Pression Humidité
    00:00 +24°C° 0 mm 1 m/s 717 mmHg 94%
    01:00 +24°C° 0 mm 1 m/s 717 mmHg 94%
    02:00 +24°C° 0.2 mm 1 m/s 717 mmHg 95%
    03:00 +24°C° 0.2 mm 1 m/s 717 mmHg 95%
    04:00 +24°C° 0.2 mm 1 m/s 716 mmHg 95%
    05:00 +24°C° 0.3 mm 1 m/s 717 mmHg 96%
    06:00 +24°C° 0.3 mm 1 m/s 717 mmHg 96%
    07:00 +24°C° 0.3 mm 1 m/s 718 mmHg 97%
    08:00 +25°C° 0 mm 1 m/s 718 mmHg 94%
    09:00 +25°C° 0 mm 1 m/s 718 mmHg 91%
    10:00 +26°C° 0 mm 1 m/s 718 mmHg 88%
    11:00 +27°C° 0.2 mm 1 m/s 718 mmHg 83%
    12:00 +28°C° 0.2 mm 2 m/s 717 mmHg 77%
    13:00 +30°C° 0.2 mm 2 m/s 717 mmHg 72%
    14:00 +29°C° 1.2 mm 2 m/s 716 mmHg 78%
    15:00 +29°C° 1.2 mm 2 m/s 716 mmHg 84%
    16:00 +28°C° 1.2 mm 1 m/s 716 mmHg 91%
    17:00 +27°C° 0.5 mm 1 m/s 716 mmHg 92%
    18:00 +26°C° 0.5 mm 1 m/s 716 mmHg 94%
    19:00 +23°C° 0.5 mm 0 m/s 717 mmHg 96%
    20:00 +25°C° 0 mm 1 m/s 717 mmHg 96%
    21:00 +24°C° 0 mm 1 m/s 718 mmHg 96%
    22:00 +24°C° 0 mm 1 m/s 718 mmHg 97%
    23:00 +24°C° 0 mm 1 m/s 718 mmHg 97%

    20 Juillet, Samedi

    Heure Température Précipitation Vent Pression Humidité
    00:00 +23°C° 0 mm 1 m/s 717 mmHg 97%
    01:00 +23°C° 0 mm 1 m/s 717 mmHg 97%
    02:00 +23°C° 0 mm 1 m/s 717 mmHg 97%
    03:00 +23°C° 0 mm 1 m/s 717 mmHg 97%
    04:00 +23°C° 0 mm 1 m/s 717 mmHg 97%
    05:00 +23°C° 0 mm 1 m/s 717 mmHg 95%
    06:00 +24°C° 0 mm 1 m/s 718 mmHg 93%
    07:00 +25°C° 0 mm 1 m/s 718 mmHg 91%
    08:00 +27°C° 0 mm 1 m/s 718 mmHg 82%
    09:00 +29°C° 0 mm 2 m/s 718 mmHg 72%
    10:00 +31°C° 0 mm 2 m/s 719 mmHg 63%
    11:00 +31°C° 0.3 mm 2 m/s 718 mmHg 66%
    12:00 +31°C° 0.3 mm 2 m/s 717 mmHg 70%
    13:00 +31°C° 0.3 mm 2 m/s 717 mmHg 73%
    14:00 +30°C° 1.3 mm 2 m/s 716 mmHg 77%
    15:00 +30°C° 1.3 mm 2 m/s 716 mmHg 81%
    16:00 +29°C° 1.3 mm 2 m/s 715 mmHg 85%
    17:00 +28°C° 1.1 mm 1 m/s 716 mmHg 89%
    18:00 +27°C° 1.1 mm 1 m/s 716 mmHg 92%
    19:00 +25°C° 1.1 mm 1 m/s 716 mmHg 95%
    20:00 +25°C° 1.3 mm 1 m/s 717 mmHg 96%
    21:00 +25°C° 1.3 mm 1 m/s 718 mmHg 96%
    22:00 +25°C° 1.3 mm 2 m/s 718 mmHg 97%
    23:00 +24°C° 0.1 mm 2 m/s 718 mmHg 96%

    21 Juillet, Dimanche

    Heure Température Précipitation Vent Pression Humidité
    00:00 +24°C° 0.1 mm 1 m/s 717 mmHg 96%
    01:00 +24°C° 0.1 mm 1 m/s 717 mmHg 95%
    02:00 +24°C° 0 mm 1 m/s 717 mmHg 95%
    03:00 +24°C° 0 mm 1 m/s 717 mmHg 95%
    04:00 +24°C° 0 mm 1 m/s 717 mmHg 94%
    05:00 +24°C° 0 mm 1 m/s 717 mmHg 93%
    06:00 +25°C° 0 mm 1 m/s 717 mmHg 92%
    07:00 +25°C° 0 mm 1 m/s 718 mmHg 91%
    08:00 +27°C° 0 mm 1 m/s 718 mmHg 84%
    09:00 +28°C° 0 mm 1 m/s 718 mmHg 77%
    10:00 +30°C° 0 mm 1 m/s 718 mmHg 71%
    11:00 +30°C° 0.5 mm 2 m/s 718 mmHg 72%
    12:00 +30°C° 0.5 mm 2 m/s 717 mmHg 72%
    13:00 +30°C° 0.5 mm 2 m/s 716 mmHg 73%
    14:00 +31°C° 0.8 mm 2 m/s 716 mmHg 73%
    15:00 +31°C° 0.8 mm 2 m/s 716 mmHg 72%
    16:00 +31°C° 0.8 mm 2 m/s 715 mmHg 71%
    17:00 +29°C° 0.7 mm 2 m/s 715 mmHg 78%
    18:00 +27°C° 0.7 mm 1 m/s 716 mmHg 86%
    19:00 +26°C° 0.7 mm 1 m/s 716 mmHg 93%
    20:00 +25°C° 0 mm 1 m/s 717 mmHg 94%
    21:00 +25°C° 0 mm 1 m/s 717 mmHg 94%
    22:00 +25°C° 0 mm 1 m/s 718 mmHg 95%
    23:00 +24°C° 0 mm 1 m/s 717 mmHg 95%
    Voir plus